Back to catalog

BEE-1000

AliveAmateur RadioSSO
NORAD 66650·PAYLOAD·🇰🇷 South Korea

Launched Nov 26, 2025 from Naro Space Center

Loading…

Next Passes (next 24 hours)

TLE

FreshSource: Space-Track

Epoch: Sep 14, 2026, 13:14 UTC

1 66650U 25274A   26257.55192821  .00002746  00000-0  26724-3 0  9991
2 66650  97.7478 185.2795 0013226  61.4090 298.8459 14.93293682 43546

Track BEE-1000 in real time with AllMySat

Download on the App Store